Regional Weather Roundup
Issued by NWS

Home | Current Version | Previous Version | Text Only | Print | Product List | Glossary Off
Versions: 1 2 3 4 5 6 7 8 9 10 11 12 13 14 15 16 17 18 19 20 21 22 23 24 25 26 27 28 29 30 31 32 33 34 35 36 37 38 39 40 41 42 43 44 45 46 47 48 49 50

000
ASUS43 KOAX 031910
RWRNE

WEATHER ROUNDUP FOR NEBRASKA
NATIONAL WEATHER SERVICE OMAHA NE
200 PM CDT FRI JUL 03 2015

NOTES: SATELLITE DATA IS BEING USED TO AUGMENT CLOUD COVER ABOVE
       12000 FEET.
       "FAIR" INDICATES FEW OR NO CLOUDS BELOW 12,000 FEET WITH NO
       SIGNIFICANT WEATHER AND/OR OBSTRUCTIONS TO VISIBILITY.

  * THESE STATIONS DO NOT REPORT WEATHER SUCH AS RAIN...SNOW OR FOG.

NEZ001>004-019>022-054>056-032000-
NEBRASKA PANHANDLE

CITY           SKY/WX    TMP DP  RH WIND       PRES   REMARKS
SCOTTSBLUFF    SUNNY     83  54  36 MISG      30.09F
ALLIANCE       SUNNY     78  56  46 CALM      30.09F
CHADRON        SUNNY     81  55  40 VRB3      30.06F
KIMBALL          N/A    N/A N/A N/A MISG        N/A
SIDNEY         MOSUNNY   81  56  42 VRB5      30.12F
$$

NEZ057>060-069>072-079>082-032000-
SOUTHWEST NEBRASKA

CITY           SKY/WX    TMP DP  RH WIND       PRES   REMARKS
NORTH PLATTE   MOSUNNY   82  58  43 VRB3      30.05F
IMPERIAL       SUNNY     82  55  39 VRB5      30.06F
LEXINGTON      SUNNY     77  63  62 CALM      30.06F
MCCOOK         MOSUNNY   81  62  52 E9        30.05F
OGALLALA       PTSUNNY   79  56  45 CALM      30.07F
$$

NEZ005>010-023>029-035>040-094-032000-
NORTH CENTRAL NEBRASKA

CITY           SKY/WX    TMP DP  RH WIND       PRES   REMARKS
VALENTINE      MOSUNNY   81  61  50 N7        30.03F
AINSWORTH      SUNNY     79  61  53 CALM      30.04F
BROKEN BOW     MOSUNNY   81  61  50 NE5       30.04F
O`NEILL        MOSUNNY   76  63  63 CALM      30.04S
ORD            PTSUNNY   77  59  53 CALM      30.02F
THEDFORD       PTSUNNY   79  61  53 NW3       30.07S
$$

NEZ041-046>049-061>064-073>077-083>087-032000-
SOUTH CENTRAL NEBRASKA

CITY           SKY/WX    TMP DP  RH WIND       PRES   REMARKS
GRAND ISLAND   CLOUDY    74  60  61 CALM      30.05F
AURORA         PTSUNNY   73  62  70 CALM      30.04F
HASTINGS       MOSUNNY   75  61  61 VRB3      30.04F
HEBRON         CLOUDY    74  61  62 NE6       30.03S
HOLDREGE       MOSUNNY   73  60  63 N6        30.06F
KEARNEY *      PTSUNNY   73  59  60 CALM      30.05F
YORK           CLOUDY    72  64  78 E5        30.04F
$$

NEZ011>018-030>034-042>045-032000-
NORTHEAST NEBRASKA

CITY           SKY/WX    TMP DP  RH WIND       PRES   REMARKS
NORFOLK        CLOUDY    72  62  71 CALM      30.03F
ALBION         CLOUDY    72  60  65 CALM      30.04F
BLAIR          SUNNY     73  52  47 NE3       30.02F
COLUMBUS *     CLOUDY    72  61  68 CALM      30.05F
FREMONT        SUNNY     76  60  57 NW5       30.02F
TEKAMAH        SUNNY     77  55  46 VRB3      30.00F
WAYNE          PTSUNNY   75  62  64 CALM      30.02F
$$

NEZ050>053-065>068-078-088>093-032000-
SOUTHEAST NEBRASKA

CITY           SKY/WX    TMP DP  RH WIND       PRES   REMARKS
LINCOLN        PTSUNNY   77  61  57 N3        30.02F
OMAHA EPPLEY   PTSUNNY   76  56  49 CALM      30.01F
BEATRICE       SUNNY     76  58  52 N6        30.01F
FALLS CITY     SUNNY     77  58  51 VRB3      29.99F
NEBRASKA CITY  SUNNY     75  48  37 E5        30.01S
PLATTSMOUTH    SUNNY     74  53  46 CALM      30.01F
$$

NEZ044-045-051>053-067-032000-
OMAHA AREA

CITY           SKY/WX    TMP DP  RH WIND       PRES   REMARKS
OMAHA EPPLEY   PTSUNNY   76  56  49 CALM      30.01F
BLAIR          SUNNY     73  52  47 NE3       30.02F
FREMONT        SUNNY     76  60  57 NW5       30.02F
MILLARD        SUNNY     75  53  46 CALM      30.01S
OFFUTT AFB     MOSUNNY   76  54  46 E3        30.00F
PLATTSMOUTH    SUNNY     74  53  46 CALM      30.01F
WAHOO          FAIR      75  60  60 N5        30.01F
$$


USA.gov is the U.S. government's official web portal to all federal, state and local government web resources and services.